DW9005 Weather Reports


Display with metric or nautical units.
time (UTC)temp
F
wind
direction
speed
MPH
gust
MPH
rain 1hr
in
rain 24hr
in
rain mn
in
humidity
%
barometer
mb
20260902043056 77 0.0 0.0 0.00 0.00 0.00 93 1017.3
20260902041556 77 0.0 0.0 0.00 0.00 0.00 92 1017.4
20260902040058 77 0.0 0.0 0.00 0.00 0.00 92 1017.3
20260902034601 78 0.0 0.0 0.00 0.00 0.00 92 1017.4
20260902033105 78 0.0 0.0 0.00 0.00 0.00 91 1017.4
20260902031534 78 0.0 0.0 0.00 0.00 0.00 90 1017.5
20260902030034 78 0.0 0.0 0.00 0.00 0.00 90 1017.5
20260902024521 79 0.0 0.0 0.00 0.00 0.00 89 1017.5
20260902023016 79 0.0 0.0 0.00 0.00 0.00 88 1017.4
20260902021601 80 0.0 0.0 0.00 0.00 0.00 88 1017.3
20260902020111 80 0.0 0.0 0.00 0.00 0.00 87 1017.1
20260902014543 80 0.0 0.0 0.00 0.00 0.00 85 1017.0
20260902013040 81 0.0 0.0 0.00 0.00 0.00 83 1016.9
20260902011527 82 0.0 0.0 0.00 0.00 0.00 82 1016.7
20260902010023 82 0.0 0.0 0.00 0.00 0.00 78 1016.6
20260902004505 83 0.0 0.0 0.00 0.00 0.00 76 1016.4
20260902003003 85 0.0 0.0 0.00 0.00 0.00 75 1016.4
20260902001545 86 0.0 0.0 0.00 0.00 0.00 74 1016.3
20260902000044 88 0.0 0.0 0.00 0.00 0.00 72 1016.3
20260901234525 90 0.0 0.0 0.00 0.00 0.00 65 1016.4
20260901233025 91 0.0 0.0 0.00 0.00 0.00 60 1016.5
20260901231508 93 0.0 0.0 0.00 0.00 0.00 55 1016.6
20260901230008 93 0.0 0.0 0.00 0.00 0.00 54 1016.6
20260901224550 94 0.0 0.0 0.00 0.00 0.00 54 1016.6
20260901223051 94 0.0 0.0 0.00 0.00 0.00 54 1016.5
20260901221531 93 0.0 0.0 0.00 0.00 0.00 55 1016.4
20260901220036 94 0.0 0.0 0.00 0.00 0.00 54 1016.4
20260901214513 93 0.0 0.0 0.00 0.00 0.00 55 1016.4
20260901213013 94 0.0 0.0 0.00 0.00 0.00 54 1016.5
20260901211553 94 0.0 0.0 0.00 0.00 0.00 52 1016.6
20260901210052 93 0.0 0.0 0.00 0.00 0.00 55 1016.8
20260901204543 93 0.0 0.0 0.00 0.00 0.00 57 1016.8
20260901203034 93 0.0 0.0 0.00 0.00 0.00 53 1017.0
20260901201514 94 0.0 0.0 0.00 0.00 0.00 53 1017.1
20260901200012 93 0.0 0.0 0.00 0.00 0.00 55 1017.4
20260901194558 93 0.0 0.0 0.00 0.00 0.00 52 1017.4
20260901193056 93 0.0 0.0 0.00 0.00 0.00 56 1017.6
20260901191534 92 0.0 0.0 0.00 0.00 0.00 56 1017.8
20260901190034 93 0.0 0.0 0.00 0.00 0.00 57 1018.0
20260901184522 92 0.0 0.0 0.00 0.00 0.00 56 1018.1
20260901183013 92 0.0 0.0 0.00 0.00 0.00 57 1018.3
20260901181558 92 0.0 0.0 0.00 0.00 0.00 57 1018.4
20260901180051 91 0.0 0.0 0.00 0.00 0.00 61 1018.6
20260901174532 90 0.0 0.0 0.00 0.00 0.00 59 1018.8
20260901173031 91 0.0 0.0 0.00 0.00 0.00 59 1018.8
20260901171513 90 0.0 0.0 0.00 0.00 0.00 61 1019.0
20260901170012 90 0.0 0.0 0.00 0.00 0.00 61 1019.2
20260901164555 90 0.0 0.0 0.00 0.00 0.00 62 1019.2
20260901163051 90 0.0 0.0 0.00 0.00 0.00 62 1019.4
20260901161533 90 0.0 0.0 0.00 0.00 0.00 63 1019.4
20260901160035 89 0.0 0.0 0.00 0.00 0.00 63 1019.5
20260901154511 88 0.0 0.0 0.00 0.00 0.00 68 1019.7
20260901153010 89 0.0 0.0 0.00 0.00 0.00 71 1019.8
20260901151607 87 0.0 0.0 0.00 0.00 0.00 73 1019.9
20260901150049 85 0.0 0.0 0.00 0.00 0.00 75 1020.0
20260901144542 84 0.0 0.0 0.00 0.00 0.00 76 1019.8
20260901143022 83 0.0 0.0 0.00 0.00 0.00 78 1019.9
20260901141532 81 0.0 0.0 0.00 0.00 0.00 84 1019.9
20260901140059 80 0.0 0.0 0.00 0.00 0.00 87 1019.8
20260901134617 78 0.0 0.0 0.00 0.00 0.00 90 1019.8
20260901133031 76 0.0 0.0 0.00 0.00 0.00 93 1019.8
20260901131527 75 0.0 0.0 0.00 0.00 0.00 95 1019.9
20260901130006 73 0.0 0.0 0.00 0.00 0.00 95 1019.8
20260901124506 72 0.0 0.0 0.00 0.00 0.00 95 1019.8
20260901123047 72 0.0 0.0 0.00 0.00 0.00 95 1019.7
20260901121548 71 0.0 0.0 0.00 0.00 0.00 95 1019.6
20260901120028 71 0.0 0.0 0.00 0.00 0.00 95 1019.5
20260901114527 71 0.0 0.0 0.00 0.00 0.00 95 1019.2
20260901113006 71 0.0 0.0 0.00 0.00 0.00 95 1018.9
20260901111506 71 0.0 0.0 0.00 0.00 0.00 95 1018.9
20260901110049 71 0.0 0.0 0.00 0.00 0.00 95 1018.6
20260901104544 71 0.0 0.0 0.00 0.00 0.00 95 1018.6
20260901103028 71 0.0 0.0 0.00 0.00 0.00 95 1018.5
20260901101525 71 0.0 0.0 0.00 0.00 0.00 95 1018.5
20260901100013 71 0.0 0.0 0.00 0.00 0.00 95 1018.5
20260901094513 71 0.0 0.0 0.00 0.00 0.00 95 1018.5
20260901093010 72 0.0 0.0 0.00 0.00 0.00 95 1018.4
20260901091508 72 0.0 0.0 0.00 0.00 0.00 95 1018.2
20260901090007 72 0.0 0.0 0.00 0.00 0.00 95 1018.1
20260901084505 72 0.0 0.0 0.00 0.00 0.00 95 1018.0
20260901083006 72 0.0 0.0 0.00 0.00 0.00 95 1018.0
20260901081502 72 0.0 0.0 0.00 0.00 0.00 95 1017.8
20260901080049 72 0.0 0.0 0.00 0.00 0.00 95 1017.8
20260901074552 73 0.0 0.0 0.00 0.00 0.00 95 1017.7
20260901073024 73 0.0 0.0 0.00 0.00 0.00 95 1017.7
20260901071524 73 0.0 0.0 0.00 0.00 0.00 95 1017.8
20260901070003 73 0.0 0.0 0.00 0.00 0.00 95 1017.8
20260901064502 73 0.0 0.0 0.00 0.00 0.00 95 1017.7
20260901063046 74 0.0 0.0 0.00 0.00 0.00 94 1017.8
20260901061545 74 0.0 0.0 0.00 0.00 0.00 95 1017.8
20260901060027 74 0.0 0.0 0.00 0.00 0.00 94 1017.9
20260901054533 74 0.0 0.0 0.00 0.00 0.00 94 1017.9
20260901053011 75 0.0 0.0 0.00 0.00 0.00 94 1018.0
20260901051508 75 0.0 0.0 0.00 0.00 0.00 94 1018.1
20260901050050 75 0.0 0.0 0.00 0.00 0.00 94 1018.0
20260901044551 75 0.0 0.0 0.00 0.00 0.00 94 1018.2